E1763 Weather Reports


Display with metric or nautical units.
time (UTC)temp
F
wind
direction
speed
MPH
gust
MPH
rain 1hr
in
rain 24hr
in
rain mn
in
humidity
%
barometer
mb
20260510081534 52 174 0.0 0.0 0.01 0.01 0.01 96 1010.0
20260510080038 52 174 0.0 0.0 0.01 0.01 0.01 96 1010.0
20260510074532 52 183 0.0 0.0 0.00 0.00 0.00 96 1010.1
20260510073040 52 205 0.0 0.0 0.00 0.00 0.00 96 1010.1
20260510071529 52 187 0.0 0.0 0.00 0.00 0.00 96 1010.2
20260510070030 52 196 0.0 0.0 0.00 0.00 0.00 96 1010.3
20260510064526 52 196 0.0 0.0 0.00 0.00 0.00 95 1010.4
20260510063026 52 196 0.0 0.0 0.00 0.00 0.00 95 1010.4
20260510061524 52 196 0.0 0.0 0.00 0.00 0.00 95 1010.3
20260510060026 52 196 0.0 0.0 0.00 0.00 0.00 95 1010.4
20260510054524 52 196 0.0 0.0 0.00 0.00 0.00 95 1010.5
20260510053045 52 196 0.0 0.0 0.00 0.00 0.00 95 1010.6
20260510051522 52 265 0.0 0.0 0.00 0.00 0.00 95 1010.6
20260510050121 52 227 0.0 0.0 0.00 0.00 0.00 94 1010.6
20260510044521 53 173 0.0 0.0 0.00 0.00 0.00 94 1010.6
20260510043037 53 350 0.0 0.0 0.00 0.00 0.00 94 1010.4
20260510041525 53 350 0.0 0.0 0.00 0.00 0.00 94 1010.3
20260510040033 53 254 0.0 0.0 0.00 0.00 0.00 93 1010.2
20260510034519 53 254 0.0 0.0 0.00 0.00 0.00 93 1010.2
20260510033019 54 227 0.0 0.0 0.00 0.00 0.00 93 1010.3
20260510031523 54 303 0.0 0.0 0.00 0.00 0.00 92 1010.2
20260510030018 54 17 0.0 0.0 0.00 0.00 0.00 92 1010.1
20260510024517 54 19 0.0 0.0 0.00 0.00 0.00 91 1010.2
20260510023016 55 355 0.0 0.0 0.00 0.00 0.00 91 1010.2
20260510021531 55 5 0.0 0.0 0.00 0.00 0.00 91 1010.2
20260510020014 55 319 0.0 0.0 0.00 0.00 0.00 90 1010.4
20260510014514 55 261 0.0 0.0 0.00 0.00 0.00 88 1010.4
20260510013022 57 306 0.0 0.0 0.00 0.00 0.00 86 1010.3
20260510011512 59 258 0.0 0.0 0.00 0.00 0.00 84 1010.5
20260510010011 60 197 0.0 0.0 0.00 0.00 0.00 81 1010.5
20260510004512 61 215 0.0 0.0 0.00 0.00 0.00 81 1010.5
20260510003009 62 5 0.0 0.0 0.00 0.00 0.00 78 1010.6
20260510001509 65 345 0.0 0.0 0.00 0.00 0.00 75 1010.6
20260510000005 65 208 0.0 0.0 0.00 0.00 0.00 78 1010.5
20260509234504 64 251 0.0 0.0 0.00 0.00 0.00 76 1010.6
20260509233103 65 273 0.0 0.0 0.00 0.00 0.00 75 1010.7
20260509231501 66 261 0.0 0.0 0.00 0.00 0.00 79 1010.7
20260509224600 66 275 0.0 0.0 0.00 0.00 0.00 77 1010.8
20260509223102 65 259 0.0 0.0 0.00 0.00 0.00 75 1010.9
20260509221556 64 211 0.0 0.0 0.00 0.00 0.00 79 1011.2
20260509220054 64 260 0.0 0.0 0.00 0.00 0.00 77 1011.2
20260509214619 65 265 0.0 0.0 0.00 0.00 0.00 77 1011.3
20260509213052 65 223 0.0 0.0 0.00 0.00 0.00 79 1011.4
20260509211551 65 252 0.0 0.0 0.00 0.00 0.00 77 1011.4
20260509210052 67 216 0.0 0.0 0.00 0.00 0.00 75 1011.4
20260509204548 67 191 0.0 0.0 0.00 0.00 0.00 75 1011.3
20260509203058 66 223 0.0 0.0 0.00 0.00 0.00 77 1011.3
20260509201544 66 286 0.0 0.0 0.00 0.00 0.00 77 1011.5
20260509200044 66 265 0.0 0.0 0.00 0.00 0.00 78 1011.5
20260509194544 66 176 0.0 0.0 0.00 0.00 0.00 78 1011.5
20260509193039 66 254 0.0 0.0 0.00 0.00 0.00 80 1011.7
20260509191553 65 201 0.0 0.0 0.00 0.00 0.00 80 1011.7
20260509190036 65 175 0.0 0.0 0.00 0.00 0.00 85 1011.8
20260509184543 63 234 0.0 0.0 0.00 0.00 0.00 88 1011.8
20260509183033 61 173 0.0 0.0 0.00 0.00 0.00 91 1011.9
20260509181523 59 232 0.0 0.0 0.00 0.00 0.00 92 1011.8
20260509180020 58 213 0.0 0.0 0.00 0.00 0.00 96 1011.9
20260509174522 56 202 0.0 0.0 0.00 0.00 0.00 97 1011.8
20260509173014 54 222 0.0 0.0 0.00 0.00 0.00 97 1011.9
20260509171513 54 202 0.0 0.0 0.00 0.00 0.00 97 1011.9
20260509170014 53 225 0.0 0.0 0.00 0.00 0.00 97 1012.0
20260509164509 52 171 0.0 0.0 0.00 0.00 0.00 97 1012.1
20260509163011 51 202 0.0 0.0 0.00 0.00 0.00 97 1012.1
20260509161505 51 194 0.0 0.0 0.00 0.00 0.00 97 1012.1
20260509160005 50 229 0.0 0.0 0.00 0.00 0.00 97 1012.1
20260509154503 50 195 0.0 0.0 0.00 0.00 0.00 97 1012.1
20260509153002 49 187 0.0 0.0 0.00 0.00 0.00 97 1012.0
20260509151601 49 213 0.0 0.0 0.00 0.00 0.00 96 1011.9
20260509150103 48 159 0.0 0.0 0.00 0.00 0.00 96 1011.9
20260509144600 48 220 0.0 0.0 0.00 0.00 0.00 97 1011.9
20260509143100 47 184 0.0 0.0 0.00 0.00 0.00 96 1011.9
20260509141558 47 86 0.0 0.0 0.00 0.00 0.00 96 1011.8
20260509134555 47 47 0.0 0.0 0.00 0.00 0.00 96 1011.4
20260509133055 47 320 0.0 0.0 0.00 0.00 0.00 96 1011.2
20260509131557 46 22 0.0 0.0 0.00 0.00 0.00 96 1011.1
20260509130105 46 22 0.0 0.0 0.00 0.00 0.00 96 1011.1
20260509124556 46 22 0.0 0.0 0.00 0.01 0.00 96 1011.0
20260509123053 47 22 0.0 0.0 0.00 0.01 0.00 96 1010.9
20260509121604 47 22 0.0 0.0 0.00 0.01 0.00 96 1011.0
20260509120049 47 22 0.0 0.0 0.00 0.01 0.00 96 1010.9
20260509114553 47 22 0.0 0.0 0.00 0.01 0.00 96 1010.9
20260509113055 48 22 0.0 0.0 0.00 0.01 0.00 96 1010.8
20260509111543 48 22 0.0 0.0 0.00 0.01 0.00 96 1010.9
20260509110042 48 22 0.0 0.0 0.00 0.01 0.00 96 1010.9
20260509104540 49 26 0.0 0.0 0.00 0.01 0.00 96 1011.0
20260509103045 49 39 0.0 0.0 0.00 0.01 0.00 96 1010.9
20260509101556 49 55 0.0 0.0 0.00 0.01 0.00 96 1011.0
20260509100136 49 23 0.0 0.0 0.00 0.01 0.00 96 1011.0
20260509094538 48 51 0.0 0.0 0.00 0.01 0.00 95 1011.0
20260509093033 49 37 0.0 0.0 0.00 0.01 0.00 95 1011.2
20260509091532 49 37 0.0 0.0 0.00 0.01 0.00 95 1011.2
20260509090038 49 37 0.0 0.0 0.00 0.01 0.00 95 1011.1
20260509084529 49 37 0.0 0.0 0.00 0.01 0.00 95 1011.2
20260509083038 49 24 0.0 0.0 0.00 0.01 0.00 95 1011.4